This is the latest recevied weather packets stored in our database for station/object KD8OUK. If no packets are shown the sender has not sent any weather packets the latest 10 day(s).
| Time | Temp. | Humidity | Pressure | Rain* | Wind** | Luminosity | Snow |
|---|---|---|---|---|---|---|---|
| 1777577731 | 14.44° C | 48% | 1015.9 hPa | 0 mm | - | - | - |
| 1777577423 | 13.89° C | 50% | 1015.9 hPa | 0 mm | - | - | - |
| 1777577115 | 12.22° C | 51% | 1015.9 hPa | 0 mm | - | - | - |
| 1777576824 | 12.78° C | 53% | 1015.9 hPa | 0 mm | - | - | - |
| 1777576530 | 13.33° C | 50% | 1015.9 hPa | 0 mm | - | - | - |
| 1777576222 | 13.33° C | 49% | 1015.8 hPa | 0 mm | - | - | - |
| 1777575933 | 13.89° C | 47% | 1015.8 hPa | 0 mm | - | - | - |
| 1777575625 | 14.44° C | 47% | 1016 hPa | 0 mm | - | - | - |
| 1777575317 | 14.44° C | 49% | 1016 hPa | 0 mm | - | - | - |
| 1777575028 | 13.89° C | 50% | 1016 hPa | 0 mm | - | - | - |
| 1777574720 | 14.44° C | 49% | 1015.9 hPa | 0 mm | - | - | - |
| 1777574430 | 13.89° C | 52% | 1015.9 hPa | 0 mm | - | - | - |
| 1777574123 | 13.33° C | 52% | 1016 hPa | 0 mm | - | - | - |
| 1777573832 | 13.33° C | 53% | 1016 hPa | 0 mm | - | - | - |
| 1777573524 | 13.89° C | 53% | 1016.1 hPa | 0 mm | - | - | - |
| 1777573218 | 13.33° C | 54% | 1016.1 hPa | 0 mm | - | - | - |
| 1777572926 | 11.67° C | 54% | 1016.1 hPa | 0 mm | - | - | - |
| 1777572618 | 12.78° C | 54% | 1016.1 hPa | 0 mm | - | - | - |
| 1777572328 | 11.67° C | 55% | 1016.1 hPa | 0 mm | - | - | - |
| 1777572020 | 12.78° C | 53% | 1016.1 hPa | 0 mm | - | - | - |
| 1777571731 | 12.22° C | 55% | 1016.1 hPa | 0 mm | - | - | - |
| 1777571423 | 12.22° C | 55% | 1016.1 hPa | 0 mm | - | - | - |
| 1777571134 | 12.78° C | 55% | 1016 hPa | 0 mm | - | - | - |
| 1777570825 | 13.33° C | 57% | 1016 hPa | 0 mm | - | - | - |
| 1777570518 | 12.22° C | 59% | 1016.4 hPa | 0 mm | - | - | - |
* Rain latest hour (hover to see other rain measurements)
** Current wind speed in m/s (hover to see current wind gust speed)